Change the Weather History Date:

Thursday, October 9, 2014

  Actual Average Record
Temperature  
Mean Temperature 52 °F 53 °F  
Max Temperature 64 °F 63 °F 84 °F (2007)
Min Temperature 39 °F 43 °F 26 °F (2001)
Degree Days  
Heating Degree Days 13 12  
Month to date heating degree days 83 99  
Since 1 July heating degree days 241 270  
Cooling Degree Days 0 0  
Month to date cooling degree days 0 0  
Year to date cooling degree days 519 522  
Growing Degree Days 2 (Base 50)    
Moisture  
Dew Point 39 °F    
Average Humidity 63    
Maximum Humidity 86    
Minimum Humidity 39    
Precipitation  
Precipitation 0.00 in 0.08 in 1.71 in (1976)
Month to date precipitation 0.83 0.76  
Year to date precipitation 30.21 25.14  
Sea Level Pressure  
Sea Level Pressure 30.07 in    
Wind  
Wind Speed 9 mph (WSW)    
Max Wind Speed 23 mph    
Max Gust Speed 30 mph    
Visibility 10 miles    
Events      
T = Trace of Precipitation, MM = Missing Value Source: NWS Daily Summary

Daily Weather History Graph

Daily Weather History Graph

Search for Another Location

Airport or City:

Trip Planner

Search our weather history database for the weather conditions in past years. The results will help you decide how hot, cold, wet, or windy it might be!

Date:

Astronomy

Oct. 09, 2014 Rise Set
Actual Time 7:17 AM EDT 6:42 PM EDT
Civil Twilight 6:50 AM EDT 7:09 PM EDT
Nautical Twilight 6:19 AM EDT 7:41 PM EDT
Astronomical Twilight 5:47 AM EDT 8:12 PM EDT
Moon 7:37 PM EDT (10/9) 8:30 AM EDT (10/9)
Length of Visible Light 12h 19m
Length of Day
11h 24m
Full, 98% of the Moon is Illuminated
Oct 9
Full
Oct 15
Last Quarter
Oct 23
New
Oct 30
First Quarter
Nov 6
Full

Hourly Weather History & Observations

Time (EDT) Temp. Windchill Dew Point Humidity Pressure Visibility Wind Dir Wind Speed Gust Speed Precip Events Conditions
12:53 AM 52.0 °F - 36.0 °F 54% 30.04 in 10.0 mi NW 11.5 mph 20.7 mph N/A   Partly Cloudy
1:53 AM 48.9 °F - 36.0 °F 61% 30.05 in 10.0 mi NW 6.9 mph - N/A   Clear
2:53 AM 46.0 °F 43.9 °F 36.0 °F 68% 30.06 in 10.0 mi West 4.6 mph - N/A   Clear
3:53 AM 43.0 °F 41.3 °F 37.0 °F 80% 30.04 in 10.0 mi SSE 3.5 mph - N/A   Clear
4:53 AM 44.1 °F 40.1 °F 36.0 °F 73% 30.04 in 10.0 mi SSW 6.9 mph - N/A   Clear
5:53 AM 43.0 °F - 36.0 °F 76% 30.06 in 10.0 mi Calm Calm - N/A   Clear
6:53 AM 41.0 °F 39.0 °F 36.0 °F 82% 30.08 in 10.0 mi South 3.5 mph - N/A   Clear
7:53 AM 42.1 °F 39.2 °F 36.0 °F 79% 30.09 in 10.0 mi SW 4.6 mph - N/A   Clear
8:53 AM 48.0 °F - 39.0 °F 71% 30.09 in 10.0 mi SSW 6.9 mph - N/A   Clear
9:53 AM 54.0 °F - 39.9 °F 59% 30.08 in 10.0 mi SSW 15.0 mph - N/A   Clear
10:53 AM 57.9 °F - 39.9 °F 51% 30.07 in 10.0 mi WSW 12.7 mph - N/A   Clear
11:53 AM 62.1 °F - 42.1 °F 48% 30.05 in 10.0 mi SW 13.8 mph 19.6 mph N/A   Clear
12:53 PM 64.0 °F - 39.0 °F 40% 30.06 in 10.0 mi West 17.3 mph 27.6 mph N/A   Clear
1:53 PM 62.1 °F - 37.0 °F 39% 30.05 in 10.0 mi West 18.4 mph - N/A   Clear
2:53 PM 61.0 °F - 37.9 °F 42% 30.06 in 10.0 mi West 16.1 mph 25.3 mph N/A   Clear
3:53 PM 60.1 °F - 39.9 °F 47% 30.06 in 10.0 mi West 17.3 mph - N/A   Clear
4:53 PM 60.1 °F - 39.0 °F 46% 30.05 in 10.0 mi West 18.4 mph 25.3 mph N/A   Clear
5:53 PM 59.0 °F - 39.0 °F 48% 30.04 in 10.0 mi West 13.8 mph 26.5 mph N/A   Clear
6:53 PM 54.0 °F - 39.9 °F 59% 30.07 in 10.0 mi WNW 5.8 mph - N/A   Clear
7:53 PM 52.0 °F - 41.0 °F 66% 30.09 in 10.0 mi West 5.8 mph - N/A   Clear
8:53 PM 50.0 °F - 41.0 °F 71% 30.10 in 10.0 mi WSW 6.9 mph - N/A   Clear
9:53 PM 48.9 °F - 43.0 °F 80% 30.10 in 10.0 mi West 5.8 mph - N/A   Clear
10:53 PM 48.0 °F - 43.0 °F 83% 30.11 in 10.0 mi WSW 4.6 mph - N/A   Clear
11:53 PM 46.9 °F - 43.0 °F 86% 30.12 in 10.0 mi SW 4.6 mph - N/A   Scattered Clouds